Wind_Speed
16 18 21 28 32 31 29 28 27 27 25 23 20 17 14 11 9 7 6 7 6 6 6 6 5 3 2 4 5 4 5 5 6 6 7 8 8 9 9 9 10 10 11 12 10 10 11 11 13 14 14 12 10 9 8 7 7 7 5 5 4 3 3 3 3 3 3 4 4 3 3 3 3 3 4 4 4 5 5 5 6 6 6 7 7
18 21 24 30 32 30 29 28 28 28 25 23 20 17 15 13 11 9 8 8 8 8 8 7 6 4 3 4 6 5 5 6 7 7 8 9 9 10 10 10 10 10 11 13 12 11 12 12 12 12 12 11 9 9 8 8 7 6 4 4 3 2 2 1 2 3 3 3 4 4 4 4 4 5 5 5 6 7 7 7 8 8 9 9 10
18 21 25 30 30 28 29 29 29 27 25 23 21 19 17 15 13 12 10 10 10 9 9 8 7 6 4 5 6 6 6 7 8 9 9 10 10 10 10 10 11 10 10 11 12 12 11 11 12 12 11 10 9 9 8 7 7 6 4 4 3 3 2 2 3 5 5 5 6 6 6 7 7 7 7 8 8 9 10 10 10 11 12 13 13
19 22 25 29 29 28 29 30 29 27 26 24 22 20 18 16 15 14 13 12 12 11 10 9 8 6 5 5 6 6 7 8 9 10 10 10 10 10 10 10 11 11 10 10 10 11 10 10 10 11 10 10 9 9 8 8 7 6 5 4 4 4 4 4 5 5 6 7 8 8 9 9 10 10 10 11 11 12 12 12 12 13 14 15 16
22 25 29 32 32 30 30 29 28 28 27 25 24 22 20 18 16 16 15 15 14 13 11 9 8 7 5 5 6 6 7 9 10 11 11 11 11 11 11 11 11 10 10 10 10 10 10 9 10 10 10 10 10 10 9 8 7 7 6 6 6 6 7 7 7 7 8 9 10 10 11 12 12 13 13 14 14 14 14 15 15 16 16 17 18
25 29 33 35 34 32 29 28 27 27 26 26 25 23 21 19 18 19 18 17 16 15 12 10 8 8 7 6 7 7 9 10 11 13 13 13 13 12 12 11 11 11 10 10 10 9 9 9 9 10 10 10 10 10 10 9 8 8 8 8 7 7 8 8 8 8 8 9 10 12 13 13 13 14 15 16 16 16 16 16 17 19 19 20 20
29 32 33 32 30 28 26 25 26 25 25 25 25 23 22 22 21 21 20 19 18 16 13 11 9 9 8 8 8 9 10 12 13 14 15 15 14 13 12 12 11 11 10 10 10 10 10 10 10 10 10 11 11 11 11 11 10 9 9 8 8 7 8 8 8 8 8 8 10 12 14 14 15 16 16 17 17 18 18 18 18 20 21 21 22
31 32 31 29 27 26 25 25 25 25 24 25 25 24 24 24 23 22 21 20 19 17 14 12 11 11 10 10 11 12 13 14 15 16 16 16 15 14 13 13 12 12 11 11 11 11 12 12 12 12 13 13 13 13 13 12 11 11 10 10 9 8 8 9 9 10 10 10 11 13 16 17 17 17 18 18 18 18 19 20 20 20 21 22 22
32 32 31 30 29 28 27 25 25 25 24 24 26 26 25 26 25 24 22 21 19 18 16 15 14 13 13 12 13 14 16 17 17 18 18 18 17 15 15 14 13 13 12 12 12 13 14 14 14 14 14 14 14 14 14 13 13 12 12 11 11 10 10 11 12 12 13 14 14 15 17 18 19 19 18 18 18 19 20 22 21 21 22 22 23
31 31 31 31 31 30 29 27 27 27 26 25 27 27 27 27 26 25 24 22 21 20 19 18 17 16 15 16 16 17 18 18 18 19 18 18 17 16 15 14 14 13 13 13 13 14 14 14 14 14 14 14 14 14 14 14 14 14 13 13 12 12 12 13 14 15 15 16 17 17 17 18 20 21 21 20 20 20 22 22 21 22 24 24 24
26 28 29 30 30 29 28 28 29 28 28 27 27 28 28 28 28 27 25 24 23 23 22 21 19 17 18 19 20 20 20 20 20 20 19 18 17 16 15 15 14 14 14 14 14 13 13 13 13 13 14 14 15 15 15 15 15 15 15 15 15 14 14 14 15 16 17 17 17 18 18 19 20 22 23 22 22 23 23 23 23 24 25 25 26
23 23 24 26 26 26 26 27 29 30 30 30 29 29 30 30 29 29 28 27 27 26 24 23 21 20 21 22 22 22 21 22 22 21 20 19 17 16 16 16 15 15 14 14 14 13 13 13 14 15 15 15 16 16 17 17 17 17 17 17 17 17 17 17 18 18 18 18 19 19 19 19 20 21 21 21 22 24 24 25 25 26 26 26 27
21 19 20 21 22 23 24 24 26 27 28 29 29 30 30 28 28 29 30 31 30 29 28 26 24 22 23 24 24 24 23 23 23 22 21 19 18 18 17 17 16 16 15 15 15 15 16 16 17 18 18 17 18 19 19 20 20 20 20 20 21 21 21 21 21 21 21 20 20 20 20 20 20 21 22 22 22 24 25 26 28 28 28 28 29
20 20 20 21 22 22 22 22 21 22 23 25 26 27 25 23 23 24 26 26 26 26 29 30 28 26 26 29 30 29 27 25 24 23 22 21 20 20 19 18 18 18 18 18 18 18 19 19 19 20 20 20 21 22 22 23 23 23 23 23 24 24 24 23 23 23 23 22 21 20 21 22 22 22 23 24 24 25 26 28 30 30 31 32 32
19 18 17 18 19 20 21 20 19 18 19 19 20 18 15 14 15 17 18 20 20 21 24 26 27 29 32 34 33 30 27 25 25 25 24 23 23 22 22 21 21 22 22 22 22 22 22 21 21 22 23 23 24 24 25 26 26 26 26 26 26 26 25 25 24 24 24 23 22 22 21 23 24 23 25 26 27 28 29 30 31 32 33 34 35
16 14 13 13 15 15 15 15 15 15 14 13 13 12 11 12 14 16 18 20 20 19 19 19 23 28 30 30 27 24 22 23 26 27 26 26 26 25 25 25 24 25 25 24 24 24 24 24 25 25 26 27 27 26 27 28 28 28 27 27 27 27 26 25 25 25 25 24 25 25 25 26 26 26 27 29 29 31 32 33 34 33 33 35 37
13 13 12 12 13 13 12 13 13 13 13 12 11 11 12 12 11 11 12 14 15 15 15 14 17 21 23 24 22 20 20 23 26 27 27 28 28 27 27 27 26 27 27 26 26 26 27 27 28 28 28 29 28 26 28 29 29 28 29 28 28 28 27 26 26 26 27 28 28 29 29 29 30 30 30 32 33 34 35 35 35 34 33 36 38
13 13 13 12 12 13 12 12 12 11 11 11 11 11 10 9 7 4 4 8 11 11 10 10 12 14 17 20 21 21 22 24 26 27 28 29 29 29 29 28 28 28 28 28 28 28 29 29 29 29 29 29 28 27 29 30 29 28 29 29 29 28 27 27 28 28 29 31 31 32 32 32 33 33 33 34 35 36 37 37 37 36 35 37 38
14 14 14 13 13 12 11 10 10 10 9 9 9 9 10 10 8 5 4 6 9 10 10 11 13 15 17 20 22 23 25 26 27 28 29 29 30 30 31 31 30 30 30 31 31 31 31 31 31 30 31 32 31 30 30 31 30 30 30 30 30 29 28 29 31 31 31 32 33 34 35 36 36 36 37 38 38 38 39 39 39 38 37 38 38
14 14 14 13 12 11 10 8 8 8 8 7 7 8 9 9 8 7 6 7 9 11 12 13 14 15 17 20 22 24 25 26 27 27 28 29 30 31 32 33 33 32 32 32 32 31 31 31 31 30 31 33 33 32 32 32 32 33 33 32 32 32 31 31 33 34 34 36 37 37 38 39 40 41 42 41 39 39 39 39 39 38 38 39 38
13 12 12 11 10 9 7 6 5 6 6 6 6 6 7 8 8 8 8 9 10 11 13 15 15 15 16 18 20 22 22 23 25 26 26 27 29 32 33 34 33 32 31 31 31 30 30 31 32 32 32 34 36 36 35 36 36 36 36 36 36 37 37 37 38 39 39 41 42 42 42 43 44 44 43 40 38 38 38 39 39 39 39 39 36
12 11 10 9 7 6 5 4 4 4 4 4 4 5 5 5 6 7 8 9 10 11 12 14 14 15 16 17 19 21 21 23 24 25 25 27 28 30 32 32 31 30 31 32 33 34 34 34 35 36 35 36 37 38 38 39 39 40 40 40 40 41 42 42 43 44 44 45 47 48 47 47 46 44 41 39 38 38 39 39 40 40 40 38 35
12 10 10 9 7 6 6 5 5 5 4 4 5 5 6 7 8 9 9 10 10 11 12 13 14 16 17 17 19 21 22 23 24 25 26 28 29 29 31 32 32 32 33 34 35 37 38 38 39 40 39 39 40 40 41 42 42 43 43 44 45 45 46 46 47 48 49 49 50 51 50 49 46 44 42 40 40 40 39 40 40 40 39 38 36
12 12 11 10 8 7 6 5 5 6 6 7 8 8 9 10 11 12 13 14 14 15 16 17 18 19 20 21 22 23 25 25 26 26 27 29 30 30 31 32 33 34 34 35 36 38 39 40 41 42 42 43 44 44 45 45 46 47 48 48 49 49 50 50 49 50 51 51 51 51 51 49 47 44 43 42 41 40 40 41 41 40 39 39 37
11 11 10 10 9 9 9 9 9 10 11 11 12 12 13 13 14 15 16 16 17 18 18 19 20 22 23 24 25 26 27 28 28 28 29 30 31 32 33 34 35 36 38 39 40 41 42 42 43 44 45 45 46 47 47 47 48 48 49 49 50 50 50 50 51 51 52 52 51 49 48 47 46 44 43 42 41 42 42 41 40 39 39 38 36
9 9 9 9 9 10 11 11 12 12 12 13 13 13 14 14 15 16 16 17 18 19 20 21 22 23 24 25 27 28 29 30 31 32 32 33 34 35 36 37 38 39 40 41 42 42 43 43 43 44 44 45 45 46 46 47 47 47 47 47 47 48 48 49 49 49 50 49 48 45 45 45 43 42 42 42 41 41 40 38 37 37 37 36 35
11 11 11 11 11 12 12 12 12 12 13 13 14 14 15 16 17 17 18 19 20 21 22 23 24 25 26 27 29 30 31 32 33 33 34 34 35 35 35 36 36 37 38 39 39 39 39 39 39 40 40 40 41 41 42 42 42 43 43 42 42 42 42 42 42 43 43 43 41 41 42 43 42 41 42 42 41 40 39 38 37 37 38 37 36
12 12 13 13 12 13 12 13 13 14 15 15 16 17 17 18 19 20 21 22 22 23 24 25 26 27 28 28 29 30 31 32 32 32 32 32 32 33 33 34 35 35 35 35 35 35 35 34 34 34 35 35 35 35 36 37 37 38 38 38 38 37 37 37 36 36 36 36 35 36 39 40 40 40 41 42 41 40 40 39 38 38 38 38 37
11 12 12 13 13 13 14 15 15 16 17 18 18 19 19 20 21 22 22 23 24 24 25 26 26 27 27 28 28 29 30 30 30 30 31 31 30 30 30 31 31 31 32 32 32 31 31 31 32 32 32 33 33 34 35 36 36 37 37 38 38 37 36 35 34 33 33 33 33 34 37 38 38 39 40 41 42 41 40 39 39 39 38 37 35
12 13 14 14 14 15 16 16 17 18 18 19 20 21 21 22 22 23 23 24 24 25 25 25 26 26 26 26 26 25 26 26 26 27 27 27 27 27 26 27 27 27 28 28 29 29 29 30 30 31 31 32 32 33 33 34 35 36 37 38 39 39 38 37 35 33 32 32 32 32 33 34 34 35 36 36 37 38 38 38 38 37 35 33 32
14 15 15 15 16 17 17 18 19 19 20 20 20 20 20 21 21 21 22 22 22 22 22 22 22 23 22 22 21 21 21 22 22 23 23 24 24 25 25 25 25 25 25 26 26 27 27 27 27 27 27 28 28 29 29 31 32 33 33 35 36 37 37 36 35 34 32 31 31 31 30 30 29 29 28 29 31 33 34 34 34 33 31 29 30
15 16 16 16 17 17 18 18 19 20 21 21 21 21 20 20 19 19 19 19 19 19 19 19 19 19 20 20 20 20 20 21 21 22 23 23 23 23 23 24 23 23 23 23 23 23 23 24 24 25 26 27 28 29 30 30 31 31 31 31 32 32 33 33 33 33 32 30 29 28 27 27 26 24 25 29 32 33 32 31 29 28 27 26 27
17 17 17 18 18 18 18 19 19 20 21 22 22 22 22 22 22 20 20 19 19 19 18 18 18 18 19 19 20 20 20 21 21 21 21 21 21 21 21 21 21 21 21 22 22 23 23 24 25 27 28 30 31 31 31 31 31 31 30 29 29 29 29 29 29 29 29 27 26 25 25 25 24 23 27 32 33 30 28 25 22 21 22 22 22
17 17 17 17 17 17 17 18 18 18 19 19 19 20 20 21 21 20 19 19 18 18 18 17 17 17 18 18 18 19 19 18 18 18 17 17 17 18 18 18 19 19 20 21 22 23 24 25 26 28 29 30 31 31 31 31 31 30 29 29 28 27 26 25 25 26 25 24 23 23 22 21 23 26 29 29 26 21 19 17 16 16 18 19 20
14 14 14 14 14 14 14 14 14 14 15 15 15 16 17 17 17 17 16 16 16 16 16 16 16 16 15 15 15 14 14 14 13 13 13 13 14 15 16 17 18 18 19 20 21 23 24 25 26 27 29 29 30 30 30 30 30 29 29 28 26 24 23 22 22 23 23 21 20 20 20 20 23 25 23 19 16 15 14 14 15 16 18 19 21
12 11 10 10 10 10 11 11 11 11 12 12 13 13 14 14 15 15 14 14 14 13 13 13 13 13 12 12 11 11 10 10 10 11 11 12 13 14 15 16 17 19 20 22 23 23 24 24 25 26 27 28 29 29 28 28 28 28 28 26 23 21 20 20 21 23 21 18 17 19 20 20 20 17 14 13 13 12 12 14 16 18 20 20 20
10 9 8 8 9 9 9 10 10 10 10 11 11 12 12 12 12 12 12 12 12 11 11 11 10 9 9 9 9 9 9 9 10 11 12 13 14 15 16 17 19 20 22 22 23 23 23 23 24 25 26 26 27 27 26 26 26 26 26 24 21 19 18 19 22 24 22 20 21 21 20 17 13 10 9 10 10 11 13 15 17 17 18 17 16
8 8 8 8 8 9 9 9 10 10 10 10 10 10 10 9 9 9 9 9 9 9 9 9 8 8 7 7 8 9 9 10 11 12 13 14 16 17 18 19 19 20 21 21 21 21 21 22 23 24 24 25 25 25 24 24 23 23 22 21 19 18 18 20 23 24 24 24 24 20 15 10 9 8 8 9 11 13 16 16 16 15 14 13 13
7 7 8 8 8 9 9 10 10 10 10 9 8 8 7 7 7 7 7 6 6 7 7 7 7 7 7 8 9 9 10 12 13 14 14 15 16 17 17 17 17 18 18 19 19 20 20 21 21 22 22 23 22 21 21 21 19 18 17 17 18 19 19 21 22 22 21 19 16 14 11 9 9 9 9 10 11 14 15 15 14 14 13 12 12
7 7 8 8 8 9 10 10 10 10 10 9 7 6 5 6 6 6 5 5 5 5 5 5 6 6 7 9 9 10 11 12 13 14 14 15 15 16 16 16 16 16 16 17 18 18 18 18 18 19 19 19 19 18 17 17 16 15 15 14 14 15 16 17 18 17 15 13 11 10 9 9 9 9 9 10 11 13 14 14 13 13 12 11 10
7 8 8 8 8 9 10 10 9 9 9 9 7 6 5 5 5 5 5 5 5 5 5 5 6 7 9 10 11 11 12 13 13 13 14 14 15 15 15 15 15 15 15 16 17 16 16 15 16 17 17 16 16 16 16 14 13 12 10 7 5 7 9 11 11 10 9 9 8 6 6 7 9 10 11 11 12 13 13 13 13 12 10 9 8
7 8 8 7 7 8 9 9 9 9 9 8 7 5 5 5 6 6 6 6 6 6 6 7 7 8 9 10 10 10 11 11 12 13 14 14 14 15 15 15 15 15 15 15 15 14 13 13 14 14 14 13 13 13 12 11 9 6 3 3 3 2 3 4 4 3 4 5 6 7 8 9 10 12 13 14 14 13 13 13 12 10 9 7 6
8 8 7 6 6 8 8 9 8 8 9 8 7 6 6 6 7 7 8 7 7 7 7 6 6 6 6 6 7 8 9 11 12 13 14 15 15 15 15 15 15 15 15 15 14 12 11 11 11 10 9 8 9 9 6 2 3 3 4 4 4 3 2 1 1 3 5 7 9 10 11 12 14 16 17 16 15 13 12 11 10 8 7 6 5
8 8 7 6 6 7 8 8 8 8 9 9 8 7 7 8 8 8 8 7 6 4 3 2 1 1 3 4 6 8 9 11 12 13 14 15 15 14 14 14 14 15 15 15 14 12 9 8 7 7 6 6 6 5 3 1 2 3 3 3 3 2 1 2 5 7 8 10 11 12 14 16 17 17 16 14 12 11 9 8 7 6 6 5 5
9 8 6 5 6 7 7 6 7 8 9 9 9 8 8 9 9 8 6 5 5 5 4 3 3 4 5 6 7 8 9 10 11 12 13 14 14 13 12 12 13 13 14 14 13 11 8 7 7 7 7 6 6 4 2 0 1 1 1 1 1 2 4 5 6 7 8 9 10 11 12 13 12 12 11 11 9 7 6 6 6 5 5 5 5
9 8 6 5 5 6 5 4 5 7 8 8 8 8 8 8 8 7 7 8 7 7 6 5 5 6 7 8 8 9 9 10 10 11 12 12 12 12 11 11 11 11 11 11 11 10 7 6 8 9 8 7 6 5 3 2 1 1 1 2 3 3 4 5 5 5 6 7 7 8 8 8 7 7 7 7 6 5 5 5 4 4 4 4 4
10 9 6 5 5 5 3 3 4 4 4 5 6 7 8 8 9 10 10 9 8 7 7 6 7 7 8 8 8 8 9 10 10 11 11 12 11 11 10 10 9 9 9 10 10 9 7 6 7 8 8 7 6 6 5 3 2 2 3 4 4 4 4 4 4 5 6 6 6 6 5 5 4 3 3 3 3 4 4 4 3 3 4 4 4
11 10 8 6 6 6 5 4 4 4 4 5 6 8 9 11 11 11 10 9 8 8 7 7 7 7 7 7 8 9 9 10 11 11 12 13 12 11 10 9 8 8 8 9 9 8 6 5 6 6 6 6 5 5 5 4 3 3 4 4 5 5 5 5 6 6 7 6 5 4 3 3 2 2 2 3 4 4 4 3 3 3 3 4 5
12 11 10 9 8 8 7 6 6 6 5 6 7 8 10 11 11 10 10 9 8 7 7 7 7 7 7 8 8 10 10 11 12 12 13 14 13 11 10 10 9 8 8 9 9 8 6 4 3 3 3 3 4 4 5 5 5 5 5 6 6 7 7 6 6 6 6 5 4 3 2 3 3 4 4 4 4 4 4 3 3 3 3 4 5
13 12 12 11 10 9 8 8 7 7 7 7 8 9 10 10 10 10 9 9 8 7 7 6 6 7 7 8 9 10 11 12 13 13 13 14 14 12 10 9 9 8 8 9 10 8 5 4 4 4 4 3 3 4 5 6 6 6 6 7 7 7 7 6 5 5 4 4 3 3 3 4 4 5 5 4 4 3 3 3 3 3 3 4 5
14 13 13 13 13 11 10 9 8 8 8 9 10 10 10 11 11 10 9 8 7 6 6 5 6 6 7 8 9 10 11 12 12 13 13 14 15 14 12 10 9 9 9 9 10 9 6 4 4 4 3 3 3 4 5 6 6 6 5 5 5 5 5 5 5 4 4 4 4 4 4 4 4 4 4 3 3 3 2 2 3 3 4 5 6
Wind_Direction
213 212 203 192 190 187 186 188 189 190 192 192 192 193 194 198 207 222 239 250 262 280 302 317 319 316 265 224 226 233 236 232 225 214 195 183 179 176 174 171 167 164 158 153 163 178 179 186 199 199 195 196 197 200 207 209 215 225 218 202 203 200 175 157 179 206 209 206 213 216 218 221 223 226 233 243 254 264 267 268 271 273 274 277 282
211 209 201 194 193 190 189 192 193 195 197 196 197 199 199 203 212 224 238 254 265 277 292 304 312 308 268 224 223 230 230 222 216 211 199 187 180 175 173 170 167 166 163 158 161 172 178 183 196 199 196 195 193 194 201 199 200 207 196 180 177 182 191 183 222 262 267 260 263 267 266 265 263 265 267 266 266 271 274 275 278 281 282 282 283
208 208 201 195 193 190 192 196 196 198 201 201 202 204 204 206 214 225 237 253 265 273 282 293 305 304 277 230 220 224 224 216 209 206 198 187 180 176 173 170 168 168 168 166 166 172 179 185 193 193 189 188 188 192 198 194 191 194 188 183 180 180 208 230 249 274 294 299 296 297 296 294 290 285 283 279 277 277 277 280 284 288 289 288 288
204 205 196 189 188 191 196 198 197 200 204 206 206 207 209 211 216 226 236 247 258 266 274 286 300 299 278 239 219 218 216 209 203 199 191 180 175 174 172 167 165 165 164 166 168 171 175 180 186 186 181 183 187 191 193 190 192 197 196 201 207 210 221 232 243 262 281 287 288 290 290 289 287 285 283 280 279 278 279 282 285 287 289 289 289
198 198 190 186 189 193 195 195 197 202 206 208 210 210 212 215 220 228 236 243 250 258 267 279 291 290 275 240 218 211 207 202 197 191 182 172 171 173 172 168 165 165 164 165 167 170 174 176 180 184 185 187 191 194 196 197 203 209 210 217 223 224 228 236 241 248 259 269 274 275 275 277 278 279 281 280 279 280 281 284 287 289 290 290 291
194 195 193 192 194 197 196 193 195 202 208 211 213 214 216 219 224 230 236 242 247 253 260 270 278 278 267 236 212 202 199 195 191 186 177 172 175 178 179 177 174 174 174 176 178 180 183 186 190 195 199 202 207 209 211 214 220 224 222 224 228 227 230 235 238 240 248 258 264 267 268 271 275 277 280 282 282 283 283 286 289 289 289 291 293
194 198 200 200 199 201 203 202 198 201 209 214 216 218 220 224 229 232 236 240 244 249 256 261 267 272 264 236 208 196 195 193 190 187 182 180 183 185 187 187 187 187 189 191 194 196 201 205 210 216 220 224 227 229 229 228 232 233 229 227 230 232 235 240 242 243 244 248 257 267 272 276 281 283 284 285 286 288 290 289 288 288 290 293 294
196 201 203 202 200 198 202 205 204 204 208 213 218 221 223 227 231 233 235 238 242 247 250 253 261 269 264 239 211 194 191 192 191 190 189 189 191 193 195 197 199 201 204 207 212 216 220 224 226 229 232 233 233 233 233 232 234 237 237 237 240 247 255 261 264 265 262 260 263 270 277 284 288 288 289 291 292 293 292 290 290 290 291 293 294
199 202 203 203 203 200 200 205 209 210 210 213 217 220 223 227 231 232 234 237 240 241 243 247 256 263 258 239 215 198 194 196 197 197 197 198 199 201 205 209 212 217 221 227 231 233 233 234 234 234 235 235 235 234 233 233 234 239 245 249 255 263 268 269 271 272 272 272 273 274 278 285 290 290 291 293 294 292 290 289 291 290 290 292 293
200 202 203 205 208 207 205 210 215 215 215 216 218 220 222 225 228 231 233 234 236 238 241 248 253 253 247 232 214 203 200 201 204 206 207 207 209 212 216 221 227 232 237 241 244 246 246 245 243 243 242 241 242 242 242 242 243 247 252 258 263 267 268 269 271 272 274 276 277 279 281 286 291 293 294 295 294 292 289 289 288 286 288 291 291
200 200 204 209 212 212 211 215 219 219 219 221 220 221 224 226 228 231 232 233 235 237 242 248 247 242 237 228 215 207 205 205 208 211 213 215 219 223 229 235 242 247 249 250 253 256 257 257 254 253 252 250 250 251 253 255 256 258 261 264 266 266 266 269 272 275 279 280 281 284 286 288 290 292 295 297 296 294 293 291 288 286 288 292 291
201 197 202 209 216 219 218 220 221 220 221 224 225 226 229 230 231 232 232 234 237 239 242 245 240 231 229 226 218 210 207 208 212 217 219 222 225 230 237 243 249 253 254 257 259 261 263 263 264 266 266 263 261 261 263 265 266 268 270 271 273 273 272 272 274 276 278 280 283 287 288 288 289 290 292 294 292 293 294 292 290 291 292 293 291
204 199 201 206 213 219 221 223 223 222 223 227 230 233 233 228 227 230 233 236 240 243 242 237 227 221 221 220 215 211 211 214 218 222 226 229 232 236 241 246 250 254 256 259 262 264 265 267 270 273 274 272 270 270 270 271 272 273 275 276 278 278 278 277 277 277 277 277 280 284 285 285 286 287 289 288 288 291 291 290 292 293 293 291 288
206 210 211 210 213 218 221 224 228 231 234 235 236 239 240 237 236 236 235 236 241 245 243 237 226 215 214 214 210 208 211 217 223 227 231 234 237 240 244 246 249 252 255 258 261 264 266 269 272 274 276 276 274 274 274 275 276 277 279 281 281 281 280 280 280 279 279 278 277 278 279 281 283 286 288 289 289 291 291 291 292 292 290 290 289
206 214 215 210 212 218 222 226 229 233 237 238 236 236 241 244 243 239 236 239 243 243 243 242 231 219 217 219 217 212 210 215 225 231 234 236 239 243 245 247 249 252 254 256 260 262 265 268 270 272 274 274 272 273 274 275 276 278 279 280 281 281 280 279 280 279 278 276 274 273 273 276 281 286 289 291 292 292 292 292 291 290 289 289 287
199 203 203 198 199 207 214 219 223 225 229 231 227 227 232 236 239 242 242 243 245 240 237 237 234 230 228 228 224 218 214 218 227 234 237 239 242 244 246 248 250 252 254 256 258 261 263 266 267 267 267 267 267 269 272 272 273 275 276 277 278 277 276 275 275 273 271 271 271 273 275 277 281 284 286 288 289 290 291 290 288 289 290 289 287
189 189 190 188 189 194 201 207 214 218 221 220 215 220 230 233 236 243 240 233 230 227 224 225 229 232 231 227 224 222 221 226 233 238 240 242 244 246 248 250 251 253 255 256 258 261 263 264 264 263 261 262 263 266 268 270 271 273 275 277 276 276 275 273 271 269 270 272 273 276 279 280 282 283 284 287 288 288 288 287 286 287 288 287 287
187 187 187 186 188 192 195 198 202 205 211 213 214 218 222 216 209 207 204 204 206 205 204 207 214 220 222 225 228 229 229 233 237 240 244 246 248 250 251 252 254 256 258 259 260 262 263 263 264 263 263 265 267 269 269 271 273 275 277 278 277 276 276 275 273 272 273 274 276 279 281 282 284 285 287 288 289 288 286 284 282 283 284 284 287
185 184 184 184 187 188 186 188 191 193 199 204 202 200 201 202 208 217 218 215 213 211 216 222 224 227 230 233 237 237 235 237 240 242 246 248 251 252 253 254 256 257 258 260 261 262 262 263 263 265 267 270 271 271 271 273 275 276 276 277 276 276 275 274 275 274 273 275 277 280 281 282 283 285 286 287 288 285 282 280 279 279 281 281 283
181 181 181 180 179 177 176 181 187 185 188 195 192 192 201 212 225 239 244 236 229 229 234 238 238 240 240 241 244 244 241 242 245 247 249 251 253 254 254 255 255 256 258 259 260 261 262 263 264 265 268 270 271 271 272 272 273 273 274 274 275 275 274 274 275 275 275 277 278 279 280 282 283 285 286 287 285 280 277 275 276 278 280 281 281
170 167 166 164 162 161 160 166 179 181 186 197 197 199 211 222 232 241 245 244 242 242 245 249 252 254 253 251 254 256 254 253 255 256 256 257 258 258 257 255 254 256 260 263 265 267 269 270 270 270 271 273 274 274 274 274 274 274 275 276 277 277 276 276 276 276 277 279 280 280 281 283 285 286 286 284 281 277 275 274 275 277 279 282 284
162 158 158 159 162 168 171 176 188 190 188 194 201 209 220 231 245 255 257 258 259 260 261 263 266 267 268 269 268 268 267 265 264 266 266 266 264 262 262 262 261 262 265 267 269 271 272 272 273 273 274 275 275 276 277 277 277 277 277 278 278 278 278 278 279 279 281 282 283 283 284 284 285 284 282 280 278 276 276 275 276 278 280 283 285
174 172 173 175 178 182 185 187 197 207 209 216 228 236 242 248 253 258 262 264 265 265 266 268 269 269 269 270 268 268 268 268 269 270 271 271 270 269 269 271 272 271 270 270 270 271 272 272 273 273 274 274 273 274 274 274 275 276 276 277 277 278 278 279 281 282 282 282 282 282 282 281 281 279 278 276 275 275 275 275 276 278 280 283 284
186 185 184 190 199 209 217 222 233 246 250 252 253 253 255 259 261 264 268 270 271 272 271 271 272 272 272 271 270 269 270 270 271 271 271 272 273 274 275 275 275 274 273 273 272 272 273 274 274 275 275 275 275 275 275 275 276 276 277 277 277 277 278 278 278 278 278 277 277 278 278 277 277 276 275 273 273 272 272 273 275 277 279 282 280
189 190 192 198 209 224 237 245 251 256 259 261 262 262 262 264 266 269 272 274 275 276 276 275 276 276 277 276 276 275 275 275 276 275 275 276 276 276 277 276 277 276 276 276 275 276 276 276 277 277 277 277 277 277 277 277 276 276 276 276 276 275 275 275 274 274 274 274 274 275 275 275 274 273 272 271 271 271 271 272 274 276 276 275 270
208 211 216 221 229 238 245 250 253 256 258 261 264 266 269 270 271 272 272 273 273 273 273 274 275 275 276 277 277 277 278 278 278 278 278 278 278 278 277 277 277 277 277 277 277 278 278 278 278 278 277 277 277 277 277 276 276 275 275 274 274 273 273 272 272 272 273 273 274 273 272 271 272 272 271 270 270 271 272 272 273 272 271 268 260
235 238 243 248 253 257 258 261 264 266 268 271 272 273 274 274 274 275 275 275 276 276 276 277 278 278 279 280 280 280 281 281 282 282 283 283 283 283 283 282 282 281 280 281 281 280 280 279 279 278 278 278 278 278 278 278 278 278 277 277 277 276 276 275 275 274 274 274 274 273 272 272 272 271 271 270 270 270 271 271 271 271 269 264 258
249 251 255 257 261 264 267 272 276 278 280 281 281 281 282 282 283 283 283 283 283 284 285 285 285 285 285 285 286 287 287 287 288 288 289 288 288 288 287 287 287 286 286 285 285 284 284 283 282 282 282 281 281 282 282 282 282 281 281 281 280 279 278 278 277 277 277 276 273 271 271 272 272 270 269 270 269 269 270 271 271 271 267 262 258
260 262 265 267 270 273 276 280 284 286 287 287 288 289 289 290 291 291 291 291 291 291 291 291 291 291 291 290 290 290 290 291 291 291 291 290 290 289 289 288 288 288 288 288 288 288 288 287 287 287 286 285 285 284 283 283 282 282 282 281 281 280 279 278 278 277 276 275 273 271 271 271 271 269 268 269 269 270 270 269 268 265 261 257 254
272 275 277 279 282 283 285 286 288 289 290 290 292 293 293 293 293 293 293 293 293 293 293 293 293 292 292 292 292 291 291 291 291 291 291 291 290 290 289 289 289 289 289 289 289 289 289 288 287 286 286 285 284 283 283 282 282 282 282 281 281 280 279 278 277 275 273 272 271 271 271 271 270 269 270 270 268 267 266 265 262 258 254 252 252
282 284 287 289 291 292 293 293 292 291 291 290 289 290 290 291 291 292 292 292 292 293 293 293 293 292 292 291 291 290 290 290 289 289 289 289 289 289 288 288 287 287 287 287 287 288 287 286 286 286 286 286 286 286 286 286 285 285 284 284 283 281 280 278 276 274 272 270 269 268 268 267 267 267 266 261 257 256 257 256 252 249 248 252 255
286 289 290 292 293 294 294 295 294 293 293 293 292 292 292 291 291 291 291 291 291 291 291 291 291 291 291 291 291 290 290 289 288 288 287 287 287 287 286 286 286 286 286 287 287 287 287 287 286 287 287 287 288 288 288 288 288 288 288 287 286 285 282 279 276 272 269 267 267 266 263 260 260 259 253 248 247 248 248 246 242 242 246 252 256
287 289 290 291 292 293 293 294 294 295 295 296 296 296 296 295 295 294 293 292 292 292 292 291 290 290 290 290 289 289 288 287 286 286 286 286 285 285 285 285 285 285 286 287 288 288 288 288 288 289 289 289 289 289 289 288 287 288 289 288 287 286 283 279 274 270 265 263 262 258 254 253 254 249 241 238 239 240 240 242 247 253 259 262 264
279 281 282 283 283 284 285 285 286 287 288 288 289 290 290 290 290 290 289 289 289 289 289 289 289 289 288 287 287 286 285 285 284 284 284 285 286 288 288 289 290 290 291 292 293 294 294 294 294 294 293 292 291 290 288 287 287 287 288 287 285 283 281 276 269 263 259 256 253 250 249 252 250 241 233 231 233 238 245 254 263 268 270 271 271
268 269 271 272 273 273 274 274 274 275 277 278 279 280 280 280 281 282 283 284 284 285 285 286 287 288 287 287 286 285 284 284 284 285 287 290 293 295 296 296 297 297 297 298 298 298 298 299 298 298 297 296 294 291 288 287 287 287 287 285 281 277 274 268 260 256 254 252 251 252 251 246 238 231 227 231 240 252 260 264 265 266 268 271 271
264 264 263 265 267 268 269 268 268 270 272 274 274 273 272 273 274 276 278 281 282 283 284 283 283 282 281 280 278 275 277 282 286 290 293 294 295 296 298 300 301 301 302 302 302 302 302 302 302 301 300 298 296 293 291 290 289 289 288 284 275 269 266 259 251 249 248 247 248 244 237 229 225 226 233 244 253 261 268 269 268 269 269 268 267
265 264 263 264 266 267 268 268 269 271 273 273 270 268 267 269 271 274 278 281 283 285 284 283 282 280 279 279 279 280 284 288 292 295 297 298 299 301 303 304 305 305 305 304 304 305 306 307 307 306 304 301 299 297 296 295 294 292 288 280 267 260 257 250 245 244 243 241 238 229 219 218 226 237 250 258 264 272 276 275 274 273 269 264 260
270 270 271 272 273 272 271 272 273 273 274 271 268 266 267 270 274 279 284 287 288 289 288 288 290 294 296 296 297 299 300 302 302 304 305 306 306 305 305 305 305 306 306 305 305 306 308 311 312 309 305 302 301 300 300 300 298 296 291 280 265 256 251 246 244 239 228 223 223 219 215 224 240 245 254 264 268 271 271 270 269 266 260 257 258
276 275 274 274 274 275 276 276 277 276 274 271 268 268 272 278 282 284 286 286 286 287 289 292 296 300 302 302 302 303 305 306 307 307 307 306 305 305 305 305 306 307 306 305 305 306 309 312 313 310 306 304 303 303 303 302 299 299 297 285 269 259 252 248 247 239 223 214 215 217 219 230 238 241 250 259 262 264 264 261 258 255 252 255 261
278 276 273 271 271 274 275 276 275 273 269 264 260 261 266 271 273 275 274 271 269 275 282 289 295 299 300 300 302 303 303 303 303 302 303 303 305 306 308 309 309 308 307 306 306 308 311 314 314 312 309 308 306 306 305 300 295 298 301 293 275 257 247 246 249 244 232 225 228 229 228 232 236 239 242 244 247 252 253 251 251 253 255 259 260
279 275 270 266 267 271 272 270 268 264 259 252 247 246 252 257 258 259 261 261 263 268 276 284 291 295 297 298 299 299 300 300 301 301 302 305 308 311 312 314 314 313 312 313 313 314 315 317 317 315 313 310 308 307 302 293 289 294 295 282 254 238 236 239 244 245 239 237 239 246 258 265 261 258 256 253 251 251 250 250 252 256 258 260 258
280 275 269 267 271 273 270 267 261 255 249 244 237 236 242 246 247 249 251 253 259 268 276 283 288 291 293 296 299 303 306 309 310 311 313 315 317 318 319 318 318 317 318 320 322 323 321 319 319 318 316 313 316 316 305 287 276 271 243 185 166 189 218 220 224 240 259 271 274 277 280 278 272 268 266 264 260 256 253 254 256 256 256 257 255
277 273 268 269 276 275 270 265 259 251 244 239 232 230 235 239 242 245 249 255 262 269 273 278 283 289 299 310 318 323 327 328 328 327 326 326 327 326 325 323 322 324 326 330 332 333 331 328 328 328 324 324 340 352 346 284 209 173 140 113 92 78 77 60 336 300 292 288 284 282 280 277 270 263 259 256 253 250 248 250 252 251 249 250 252
273 271 267 274 285 283 274 265 257 249 242 236 229 227 232 236 240 246 250 252 250 245 237 234 267 340 354 355 355 354 350 346 342 337 332 330 329 328 326 325 327 330 334 337 338 339 342 350 354 350 337 331 345 6 28 100 132 119 94 68 55 38 348 313 300 292 289 287 284 281 277 271 266 260 254 248 243 239 237 239 242 243 246 251 256
267 266 268 284 295 290 279 268 258 248 240 234 229 228 231 234 237 237 230 207 178 158 139 117 87 60 42 30 22 16 8 0 353 345 338 332 329 326 324 324 327 332 337 340 340 341 353 19 28 17 356 338 334 335 325 272 120 96 47 357 327 311 306 300 292 287 284 279 275 271 268 264 260 255 248 241 234 228 227 229 233 239 247 252 252
263 260 263 281 289 284 281 275 259 244 235 230 226 222 220 218 209 192 171 155 143 132 118 101 81 63 50 41 34 27 20 14 7 359 349 339 330 324 320 319 323 330 336 340 340 342 358 31 42 34 21 6 356 352 338 294 235 220 294 305 298 297 300 298 293 284 276 271 271 271 269 265 258 248 239 230 219 213 222 232 237 238 240 241 241
256 252 250 258 262 255 252 254 246 232 216 207 202 194 187 178 167 158 151 143 134 124 111 94 77 64 53 46 38 33 29 24 17 10 2 353 342 332 325 320 321 327 334 336 335 338 354 26 39 37 32 25 19 17 12 355 325 320 323 318 311 303 296 290 283 279 276 277 278 275 268 263 258 249 236 222 216 219 227 235 235 230 228 231 240
251 244 236 233 234 231 227 230 233 222 198 181 175 170 165 160 155 151 147 141 132 122 108 92 79 67 57 48 41 36 33 29 24 18 11 4 357 348 339 333 332 332 336 337 330 322 329 2 23 26 28 25 18 13 13 10 359 342 325 312 304 297 291 287 284 279 275 273 270 264 260 262 269 269 259 245 238 236 232 224 216 216 226 243 255
244 239 230 225 225 224 225 232 237 231 213 193 178 171 165 159 154 152 149 143 134 121 106 93 82 70 58 49 41 36 32 30 27 22 16 11 7 360 351 346 345 342 344 347 342 323 299 302 335 348 358 6 358 347 345 345 341 331 321 311 303 298 294 291 287 279 274 274 275 275 273 273 269 267 262 252 240 231 223 216 214 221 236 251 263
239 235 229 226 224 222 226 234 241 237 223 206 192 182 172 163 158 157 153 145 134 122 108 96 84 72 61 52 44 38 34 31 28 25 21 18 16 12 4 357 356 355 354 358 359 350 320 295 304 315 317 321 322 317 316 316 314 312 310 306 302 298 295 291 288 283 282 286 291 288 278 273 270 266 260 246 224 209 204 210 227 245 262 277 286
240 237 232 229 226 223 225 232 240 239 227 212 199 188 179 170 165 162 156 147 136 124 111 98 87 76 66 57 49 42 37 34 30 26 24 23 23 23 20 12 7 5 2 3 8 11 6 348 332 322 317 311 305 303 305 308 307 305 305 303 302 299 295 293 293 292 290 289 286 280 273 268 264 256 244 227 210 202 213 245 276 294 303 304 305
Height
3118 3119 3120 3122 3124 3127 3130 3133 3135 3137 3139 3140 3142 3143 3144 3145 3146 3147 3148 3148 3149 3150 3150 3151 3151 3152 3152 3152 3152 3152 3152 3152 3153 3153 3154 3154 3155 3156 3156 3157 3158 3158 3160 3161 3163 3164 3164 3165 3165 3165 3166 3167 3168 3169 3170 3170 3170 3171 3171 3172 3172 3172 3173 3174 3174 3173 3173 3174 3174 3174 3174 3174 3174 3175 3175 3175 3175 3175 3175 3175 3175 3175 3175 3174 3174
3116 3117 3119 3121 3123 3126 3129 3132 3134 3136 3138 3139 3141 3142 3143 3144 3145 3146 3147 3147 3148 3149 3149 3150 3151 3151 3151 3151 3151 3152 3152 3152 3153 3153 3154 3154 3155 3155 3156 3157 3158 3159 3160 3161 3162 3163 3164 3165 3165 3166 3167 3167 3168 3169 3170 3170 3170 3171 3171 3171 3172 3172 3172 3173 3173 3173 3173 3173 3173 3174 3174 3174 3174 3174 3174 3174 3174 3174 3174 3174 3174 3174 3173 3173 3173
3114 3115 3117 3119 3122 3125 3128 3131 3133 3135 3137 3138 3139 3141 3141 3142 3144 3145 3146 3147 3147 3148 3149 3149 3150 3150 3151 3151 3151 3151 3152 3152 3152 3153 3154 3154 3155 3155 3156 3157 3158 3159 3160 3161 3162 3163 3164 3165 3165 3166 3167 3167 3168 3169 3169 3170 3170 3170 3171 3171 3171 3172 3172 3172 3172 3173 3173 3173 3173 3173 3173 3173 3173 3173 3173 3173 3173 3173 3173 3173 3172 3172 3172 3171 3171
3113 3114 3116 3119 3122 3125 3127 3130 3132 3133 3135 3136 3138 3139 3140 3141 3142 3143 3145 3146 3146 3147 3148 3149 3149 3149 3150 3150 3150 3151 3151 3152 3152 3153 3154 3154 3155 3155 3156 3157 3158 3159 3160 3161 3162 3163 3164 3164 3165 3166 3167 3167 3168 3169 3169 3169 3169 3169 3170 3170 3170 3171 3171 3172 3172 3172 3172 3172 3172 3172 3172 3172 3172 3172 3172 3172 3172 3172 3171 3171 3171 3170 3170 3170 3169
3111 3113 3115 3117 3119 3123 3126 3128 3130 3132 3134 3135 3136 3137 3138 3140 3141 3142 3143 3144 3145 3146 3147 3148 3148 3149 3149 3149 3150 3150 3151 3152 3152 3153 3154 3154 3155 3156 3157 3158 3159 3159 3160 3161 3162 3163 3163 3164 3165 3166 3167 3167 3168 3168 3168 3169 3169 3169 3169 3169 3170 3170 3170 3171 3171 3171 3171 3171 3171 3171 3171 3171 3170 3170 3170 3170 3170 3170 3170 3169 3169 3168 3168 3167 3167
3111 3112 3112 3114 3117 3121 3124 3127 3129 3131 3132 3133 3135 3136 3137 3138 3139 3141 3142 3143 3144 3145 3146 3146 3147 3148 3149 3149 3149 3150 3151 3151 3152 3153 3154 3154 3155 3156 3157 3158 3159 3160 3161 3161 3162 3163 3164 3165 3165 3166 3167 3167 3168 3168 3168 3168 3169 3169 3169 3169 3168 3168 3169 3169 3169 3169 3170 3170 3169 3169 3169 3169 3168 3168 3168 3167 3167 3167 3167 3167 3166 3166 3165 3165 3164
3109 3109 3110 3114 3118 3122 3125 3126 3127 3129 3131 3132 3134 3134 3135 3137 3138 3139 3140 3142 3143 3143 3144 3145 3146 3147 3148 3148 3148 3149 3150 3151 3152 3153 3153 3154 3155 3156 3157 3158 3159 3159 3160 3161 3162 3163 3164 3164 3165 3165 3166 3166 3167 3167 3167 3168 3168 3168 3168 3167 3167 3167 3167 3167 3168 3168 3168 3168 3168 3167 3166 3166 3166 3166 3166 3165 3165 3164 3164 3164 3163 3163 3162 3162 3161
3107 3107 3110 3114 3117 3120 3123 3124 3126 3127 3129 3130 3132 3133 3134 3135 3136 3137 3139 3140 3141 3142 3143 3144 3145 3146 3147 3147 3147 3147 3149 3150 3151 3152 3153 3154 3155 3155 3156 3157 3158 3159 3160 3160 3161 3162 3162 3163 3163 3164 3164 3164 3165 3165 3166 3166 3166 3166 3166 3166 3166 3166 3166 3166 3166 3166 3166 3166 3166 3166 3165 3164 3164 3165 3164 3164 3163 3163 3162 3161 3161 3161 3160 3159 3159
3106 3107 3109 3112 3114 3117 3120 3122 3124 3126 3126 3128 3130 3131 3132 3133 3134 3135 3137 3138 3139 3140 3141 3142 3143 3144 3145 3146 3146 3146 3147 3149 3150 3151 3152 3153 3154 3154 3155 3156 3157 3158 3159 3160 3160 3161 3161 3161 3161 3161 3162 3162 3162 3163 3163 3164 3164 3164 3164 3164 3164 3164 3164 3164 3164 3164 3164 3165 3164 3164 3164 3163 3162 3162 3162 3162 3161 3161 3159 3158 3158 3158 3157 3156 3156
3105 3106 3108 3110 3112 3115 3117 3120 3122 3123 3125 3126 3128 3129 3130 3131 3132 3133 3134 3136 3137 3138 3139 3140 3141 3142 3143 3143 3144 3144 3145 3147 3149 3150 3151 3152 3153 3154 3155 3155 3156 3157 3158 3158 3159 3159 3159 3159 3160 3160 3160 3160 3160 3161 3161 3161 3162 3162 3162 3162 3162 3162 3162 3162 3162 3162 3162 3162 3162 3162 3162 3161 3161 3160 3159 3159 3158 3158 3157 3156 3155 3154 3153 3153 3152
3103 3105 3107 3108 3110 3112 3114 3117 3119 3121 3123 3124 3125 3127 3127 3128 3129 3131 3132 3133 3135 3136 3137 3138 3139 3139 3140 3141 3141 3142 3144 3145 3147 3148 3149 3150 3152 3153 3154 3154 3155 3156 3156 3156 3157 3157 3157 3158 3158 3158 3158 3158 3158 3159 3159 3159 3160 3160 3160 3160 3160 3160 3160 3160 3160 3160 3160 3160 3160 3159 3159 3159 3158 3158 3157 3156 3155 3155 3154 3153 3153 3152 3150 3149 3148
3101 3102 3104 3107 3109 3110 3112 3114 3116 3119 3120 3121 3123 3124 3125 3126 3127 3128 3129 3131 3131 3133 3134 3135 3136 3137 3137 3138 3139 3141 3142 3144 3145 3146 3148 3149 3150 3151 3152 3152 3153 3154 3154 3155 3155 3155 3155 3156 3156 3156 3156 3156 3156 3156 3156 3157 3157 3157 3157 3157 3157 3157 3157 3157 3157 3157 3157 3157 3157 3157 3156 3156 3155 3155 3154 3153 3153 3152 3151 3150 3150 3149 3147 3147 3145
3099 3100 3102 3104 3107 3108 3110 3111 3113 3116 3117 3119 3120 3121 3122 3123 3124 3125 3126 3127 3128 3129 3131 3131 3132 3134 3135 3136 3137 3139 3140 3142 3143 3145 3146 3147 3148 3149 3149 3150 3151 3151 3152 3152 3152 3153 3153 3153 3153 3154 3154 3154 3154 3153 3153 3154 3154 3154 3154 3154 3154 3154 3154 3154 3155 3155 3154 3154 3154 3154 3153 3153 3152 3152 3151 3151 3150 3149 3149 3147 3146 3145 3144 3143 3142
3098 3099 3101 3103 3105 3107 3108 3109 3111 3114 3115 3116 3117 3118 3119 3120 3120 3121 3123 3124 3125 3126 3127 3127 3128 3130 3132 3133 3134 3135 3137 3140 3142 3143 3144 3145 3146 3146 3147 3148 3148 3149 3149 3150 3150 3150 3150 3151 3151 3151 3150 3151 3150 3150 3150 3150 3150 3151 3151 3151 3151 3151 3151 3151 3151 3151 3151 3151 3151 3151 3151 3150 3149 3149 3148 3148 3147 3146 3146 3145 3143 3142 3141 3140 3139
3097 3099 3100 3102 3104 3105 3107 3108 3110 3112 3113 3114 3115 3116 3117 3117 3118 3119 3120 3121 3122 3122 3123 3124 3125 3126 3128 3129 3130 3132 3135 3137 3140 3141 3142 3143 3144 3144 3145 3145 3146 3146 3147 3147 3148 3148 3148 3148 3148 3148 3147 3147 3147 3147 3147 3147 3147 3147 3148 3148 3147 3147 3147 3147 3147 3147 3147 3147 3147 3147 3147 3147 3146 3146 3145 3144 3144 3143 3142 3142 3140 3139 3137 3136 3135
3096 3098 3100 3101 3103 3104 3106 3107 3108 3110 3111 3112 3113 3114 3115 3115 3116 3116 3117 3118 3119 3119 3120 3121 3122 3124 3125 3127 3129 3131 3133 3135 3137 3139 3140 3140 3141 3142 3142 3143 3143 3144 3144 3144 3145 3145 3145 3145 3145 3145 3144 3143 3143 3144 3144 3144 3144 3144 3144 3144 3144 3143 3143 3143 3143 3143 3142 3142 3142 3142 3143 3143 3143 3143 3142 3141 3140 3139 3138 3137 3136 3135 3134 3132 3130
3096 3098 3099 3101 3103 3104 3105 3106 3107 3109 3110 3110 3112 3113 3113 3114 3114 3114 3114 3115 3116 3117 3118 3119 3121 3122 3124 3126 3128 3130 3131 3133 3135 3136 3137 3138 3138 3139 3140 3140 3140 3141 3141 3141 3142 3142 3142 3142 3141 3141 3140 3139 3139 3141 3141 3140 3141 3141 3140 3140 3140 3140 3140 3139 3139 3139 3138 3138 3138 3138 3138 3138 3138 3138 3138 3137 3136 3135 3134 3132 3131 3131 3130 3127 3125
3096 3097 3099 3100 3102 3103 3104 3105 3106 3108 3109 3109 3110 3111 3112 3113 3114 3114 3114 3115 3116 3117 3117 3119 3120 3121 3123 3125 3127 3128 3130 3131 3133 3134 3134 3135 3136 3136 3137 3137 3137 3137 3137 3138 3138 3138 3137 3137 3137 3137 3136 3136 3137 3138 3137 3137 3137 3137 3137 3136 3136 3136 3136 3135 3135 3134 3134 3133 3133 3133 3133 3133 3133 3133 3133 3132 3132 3131 3130 3128 3127 3126 3125 3123 3121
3096 3097 3099 3100 3101 3102 3104 3105 3106 3107 3108 3109 3109 3110 3111 3112 3113 3114 3114 3115 3116 3116 3117 3119 3120 3121 3122 3124 3125 3126 3127 3128 3130 3131 3131 3132 3133 3133 3133 3133 3134 3134 3134 3134 3134 3134 3133 3133 3133 3133 3132 3133 3133 3134 3133 3133 3134 3134 3133 3133 3132 3133 3133 3132 3130 3130 3129 3129 3128 3128 3128 3128 3128 3127 3127 3127 3127 3126 3125 3124 3122 3121 3120 3118 3117
3095 3096 3098 3099 3101 3102 3103 3104 3105 3106 3107 3108 3109 3110 3111 3111 3112 3113 3114 3114 3115 3116 3117 3118 3119 3120 3121 3122 3123 3124 3125 3126 3127 3127 3128 3129 3129 3130 3130 3130 3130 3130 3130 3130 3129 3129 3129 3129 3128 3129 3129 3129 3130 3129 3129 3129 3129 3129 3129 3129 3129 3128 3128 3127 3126 3125 3124 3123 3123 3123 3123 3122 3122 3122 3122 3122 3122 3121 3120 3119 3117 3116 3114 3113 3112
3095 3096 3098 3099 3100 3102 3103 3104 3105 3106 3107 3108 3108 3109 3110 3111 3111 3112 3113 3113 3114 3115 3115 3116 3117 3118 3119 3120 3121 3121 3122 3123 3123 3124 3125 3125 3126 3126 3126 3126 3126 3126 3125 3125 3124 3125 3125 3124 3124 3125 3126 3126 3126 3125 3125 3125 3125 3124 3124 3124 3124 3123 3122 3122 3120 3119 3119 3118 3117 3117 3118 3117 3117 3117 3116 3116 3115 3115 3114 3113 3112 3110 3109 3107 3106
3095 3096 3098 3099 3100 3101 3102 3103 3104 3105 3106 3107 3108 3108 3109 3110 3110 3111 3111 3112 3113 3113 3114 3115 3115 3116 3117 3118 3118 3119 3119 3120 3120 3120 3121 3122 3122 3122 3122 3121 3121 3121 3121 3122 3121 3121 3121 3121 3121 3121 3122 3122 3121 3121 3120 3120 3119 3119 3119 3119 3118 3117 3116 3116 3114 3113 3113 3112 3111 3110 3111 3111 3111 3110 3110 3109 3109 3108 3107 3106 3105 3104 3102 3101 3100
3095 3096 3097 3099 3100 3101 3102 3103 3103 3104 3105 3106 3107 3107 3108 3109 3109 3109 3110 3110 3111 3112 3112 3113 3113 3114 3114 3115 3116 3116 3116 3117 3117 3117 3118 3118 3118 3118 3118 3118 3118 3118 3118 3118 3118 3118 3118 3117 3117 3117 3117 3117 3116 3116 3115 3114 3114 3113 3113 3112 3111 3110 3109 3109 3108 3107 3106 3106 3105 3104 3104 3104 3104 3104 3103 3102 3102 3101 3100 3099 3098 3097 3096 3095 3094
3095 3096 3097 3099 3100 3101 3102 3102 3103 3104 3104 3105 3106 3106 3107 3107 3108 3108 3108 3109 3109 3109 3110 3110 3110 3111 3111 3112 3112 3113 3113 3113 3114 3114 3115 3115 3115 3115 3114 3114 3114 3114 3114 3114 3114 3114 3113 3113 3112 3112 3112 3111 3111 3110 3110 3109 3108 3107 3107 3105 3105 3104 3103 3102 3102 3101 3100 3099 3099 3098 3097 3097 3097 3097 3096 3096 3095 3095 3094 3092 3092 3091 3090 3089 3089
3095 3096 3097 3098 3099 3100 3101 3102 3102 3103 3103 3104 3104 3105 3105 3106 3106 3106 3107 3107 3107 3107 3108 3108 3108 3108 3108 3108 3108 3109 3109 3109 3110 3110 3111 3111 3111 3111 3110 3110 3110 3110 3109 3109 3108 3108 3108 3107 3107 3106 3106 3105 3104 3103 3102 3102 3101 3100 3099 3098 3097 3097 3096 3095 3095 3094 3093 3092 3092 3092 3091 3090 3090 3090 3090 3089 3089 3088 3087 3087 3086 3085 3084 3084 3083
3094 3095 3096 3097 3098 3099 3100 3100 3101 3101 3102 3102 3102 3103 3103 3104 3104 3104 3105 3105 3105 3105 3105 3106 3106 3106 3106 3105 3105 3105 3105 3105 3105 3106 3106 3106 3106 3106 3106 3105 3105 3104 3103 3102 3102 3102 3102 3101 3100 3100 3099 3098 3097 3096 3095 3094 3094 3093 3092 3091 3090 3089 3089 3088 3087 3087 3086 3086 3085 3085 3084 3083 3083 3084 3083 3083 3083 3082 3082 3082 3082 3081 3079 3078 3078
3093 3094 3095 3096 3096 3097 3098 3098 3099 3099 3099 3100 3100 3101 3101 3101 3102 3102 3102 3102 3102 3102 3102 3102 3103 3103 3103 3102 3102 3102 3102 3101 3101 3101 3101 3101 3101 3100 3100 3099 3098 3098 3097 3096 3096 3095 3095 3094 3093 3092 3092 3091 3090 3089 3088 3087 3086 3085 3084 3083 3083 3082 3082 3081 3080 3080 3080 3079 3079 3079 3077 3076 3077 3078 3078 3077 3077 3078 3078 3077 3077 3076 3076 3075 3074
3092 3093 3093 3094 3095 3095 3096 3096 3096 3097 3097 3097 3097 3098 3098 3098 3098 3098 3099 3099 3099 3098 3098 3098 3099 3099 3099 3098 3098 3098 3097 3096 3096 3096 3096 3095 3095 3094 3093 3093 3092 3091 3090 3090 3089 3089 3088 3087 3086 3085 3085 3084 3083 3082 3081 3080 3079 3078 3078 3077 3076 3076 3076 3075 3074 3074 3074 3073 3073 3073 3071 3071 3072 3072 3072 3071 3071 3072 3072 3072 3071 3071 3071 3070 3070
3090 3091 3091 3092 3093 3093 3094 3094 3094 3094 3094 3094 3094 3094 3095 3095 3095 3095 3095 3095 3095 3095 3094 3094 3094 3094 3094 3094 3094 3093 3092 3092 3091 3091 3090 3090 3090 3089 3088 3088 3087 3086 3085 3084 3084 3083 3082 3081 3080 3079 3079 3078 3077 3076 3076 3075 3074 3073 3072 3071 3070 3070 3070 3070 3069 3069 3068 3068 3067 3066 3066 3066 3066 3066 3066 3065 3066 3066 3066 3066 3066 3065 3065 3065 3066
3088 3088 3089 3089 3090 3090 3090 3091 3091 3091 3091 3091 3091 3091 3091 3092 3092 3092 3092 3091 3091 3091 3091 3091 3090 3090 3090 3090 3090 3089 3089 3088 3087 3087 3086 3086 3085 3085 3084 3084 3083 3082 3081 3080 3079 3078 3078 3077 3076 3075 3074 3073 3072 3071 3071 3069 3068 3067 3066 3065 3065 3064 3064 3064 3064 3064 3063 3062 3062 3061 3061 3060 3060 3060 3060 3060 3059 3060 3060 3060 3060 3060 3060 3061 3062
3085 3086 3086 3086 3087 3087 3087 3087 3088 3088 3089 3089 3089 3089 3089 3089 3089 3089 3089 3088 3088 3088 3088 3087 3087 3087 3087 3086 3086 3086 3086 3085 3084 3084 3083 3082 3082 3081 3081 3080 3079 3079 3078 3077 3076 3075 3074 3073 3072 3071 3070 3069 3068 3067 3066 3065 3063 3062 3061 3060 3059 3058 3058 3058 3058 3058 3058 3057 3057 3057 3056 3056 3055 3055 3055 3055 3055 3055 3055 3056 3056 3056 3057 3058 3059
3083 3083 3084 3084 3084 3085 3085 3084 3084 3084 3085 3085 3085 3085 3086 3086 3086 3086 3085 3085 3085 3085 3085 3084 3084 3084 3084 3083 3083 3083 3082 3082 3081 3081 3080 3079 3079 3078 3078 3077 3076 3075 3074 3073 3072 3071 3070 3069 3068 3067 3066 3065 3064 3063 3061 3060 3059 3058 3056 3055 3054 3053 3052 3052 3053 3053 3052 3052 3052 3052 3052 3051 3051 3051 3051 3051 3051 3052 3052 3053 3053 3054 3054 3055 3056
3081 3081 3082 3082 3082 3082 3082 3082 3082 3082 3081 3081 3081 3081 3081 3081 3082 3082 3082 3082 3082 3082 3082 3082 3081 3081 3081 3081 3080 3080 3080 3079 3079 3078 3077 3077 3076 3076 3075 3074 3073 3072 3071 3070 3069 3068 3067 3066 3065 3064 3062 3061 3060 3058 3057 3056 3054 3053 3052 3050 3049 3048 3048 3048 3048 3047 3047 3048 3048 3047 3047 3047 3047 3047 3048 3048 3048 3049 3050 3051 3052 3052 3052 3053 3053
3080 3080 3081 3081 3081 3081 3081 3081 3081 3081 3081 3080 3080 3080 3080 3079 3079 3079 3080 3080 3080 3080 3079 3079 3079 3079 3079 3079 3078 3078 3077 3077 3076 3076 3075 3074 3074 3073 3072 3071 3070 3069 3068 3067 3066 3065 3064 3063 3061 3060 3058 3057 3055 3054 3052 3051 3050 3048 3047 3046 3045 3044 3043 3043 3043 3043 3043 3043 3043 3043 3043 3044 3044 3044 3045 3045 3046 3048 3049 3049 3049 3049 3050 3050 3051
3079 3079 3080 3080 3080 3080 3080 3080 3080 3080 3080 3080 3079 3079 3079 3078 3078 3078 3078 3078 3079 3078 3078 3078 3078 3078 3077 3077 3076 3076 3075 3075 3074 3073 3073 3072 3071 3071 3070 3069 3068 3067 3066 3064 3063 3062 3061 3059 3058 3056 3054 3052 3051 3049 3048 3046 3045 3044 3043 3041 3040 3039 3039 3039 3040 3040 3040 3040 3040 3040 3041 3041 3041 3042 3042 3043 3045 3045 3046 3046 3046 3047 3047 3048 3048
3077 3078 3078 3078 3078 3079 3079 3079 3079 3079 3079 3078 3078 3078 3077 3077 3077 3077 3077 3077 3077 3077 3077 3076 3076 3076 3075 3075 3074 3074 3073 3073 3072 3072 3071 3070 3069 3068 3067 3066 3065 3064 3063 3061 3060 3059 3057 3056 3054 3052 3050 3048 3047 3045 3044 3042 3041 3039 3038 3037 3036 3036 3036 3036 3037 3037 3037 3037 3037 3038 3038 3038 3039 3040 3040 3041 3041 3042 3043 3043 3044 3044 3045 3045 3046
3075 3076 3076 3076 3077 3077 3077 3077 3077 3077 3077 3076 3076 3076 3076 3076 3076 3075 3075 3075 3075 3075 3074 3074 3074 3073 3073 3073 3072 3072 3071 3071 3070 3070 3069 3068 3067 3066 3065 3064 3063 3061 3060 3058 3057 3055 3054 3052 3050 3048 3047 3045 3043 3041 3040 3038 3037 3036 3034 3033 3033 3033 3033 3034 3034 3034 3034 3034 3035 3035 3035 3036 3036 3037 3038 3038 3040 3040 3041 3041 3042 3042 3043 3043 3043
3073 3074 3074 3074 3075 3075 3075 3075 3075 3075 3074 3074 3074 3074 3074 3074 3074 3074 3073 3073 3073 3072 3072 3072 3071 3071 3071 3071 3070 3070 3069 3069 3068 3067 3066 3065 3064 3063 3062 3061 3060 3058 3057 3055 3054 3052 3050 3049 3047 3045 3043 3041 3040 3038 3036 3035 3034 3032 3031 3030 3031 3031 3031 3031 3032 3032 3031 3031 3031 3032 3033 3034 3035 3035 3036 3038 3039 3039 3040 3040 3040 3041 3041 3041 3041
3072 3072 3072 3072 3073 3072 3073 3073 3072 3072 3072 3072 3072 3072 3072 3072 3072 3072 3072 3072 3071 3071 3071 3070 3070 3069 3069 3069 3069 3068 3068 3067 3066 3065 3064 3063 3062 3061 3060 3059 3058 3056 3054 3052 3051 3049 3047 3046 3044 3042 3040 3038 3037 3035 3034 3032 3031 3030 3029 3028 3028 3029 3029 3030 3031 3031 3030 3029 3030 3030 3031 3032 3033 3034 3035 3036 3037 3038 3038 3039 3039 3039 3039 3039 3039
3071 3071 3071 3071 3071 3071 3071 3071 3071 3071 3070 3070 3070 3070 3071 3071 3071 3071 3071 3071 3071 3070 3070 3069 3069 3069 3068 3068 3067 3067 3066 3065 3064 3063 3062 3061 3060 3059 3058 3056 3055 3053 3052 3050 3048 3046 3044 3043 3041 3039 3037 3035 3034 3033 3031 3030 3029 3028 3027 3026 3026 3026 3027 3028 3030 3030 3030 3031 3031 3031 3031 3032 3033 3034 3034 3035 3035 3036 3037 3037 3038 3038 3038 3038 3038
3070 3070 3070 3070 3069 3069 3069 3069 3069 3069 3069 3069 3069 3069 3069 3070 3070 3070 3070 3070 3070 3069 3069 3069 3068 3068 3067 3066 3066 3065 3064 3063 3062 3061 3060 3059 3058 3057 3055 3054 3053 3051 3049 3047 3045 3043 3042 3040 3038 3036 3035 3033 3032 3031 3029 3028 3028 3027 3026 3025 3025 3025 3027 3028 3029 3029 3030 3031 3031 3031 3032 3032 3033 3033 3034 3034 3034 3034 3035 3036 3036 3036 3036 3036 3036
3068 3068 3068 3068 3068 3068 3068 3068 3068 3067 3068 3068 3068 3068 3068 3068 3068 3068 3068 3069 3068 3068 3068 3067 3067 3066 3066 3065 3064 3063 3062 3061 3060 3059 3058 3056 3055 3054 3053 3052 3050 3049 3047 3045 3043 3041 3040 3038 3036 3035 3033 3032 3031 3029 3028 3027 3026 3026 3026 3026 3026 3027 3028 3028 3029 3029 3030 3030 3031 3031 3032 3032 3033 3033 3033 3033 3032 3033 3033 3034 3034 3035 3035 3035 3035
3067 3067 3067 3066 3066 3066 3066 3066 3066 3066 3066 3066 3067 3067 3067 3067 3067 3067 3067 3067 3067 3067 3067 3066 3065 3065 3064 3063 3062 3061 3060 3059 3058 3056 3055 3054 3053 3052 3050 3049 3048 3046 3045 3043 3042 3040 3038 3037 3035 3033 3032 3031 3030 3029 3028 3027 3027 3027 3027 3027 3028 3028 3029 3029 3029 3030 3030 3030 3031 3031 3031 3032 3032 3032 3032 3031 3031 3032 3032 3033 3033 3033 3033 3033 3033
3066 3065 3065 3065 3065 3065 3064 3064 3064 3064 3064 3065 3065 3065 3065 3065 3065 3066 3066 3066 3066 3066 3065 3065 3064 3064 3063 3062 3061 3060 3058 3057 3056 3055 3053 3052 3051 3050 3049 3047 3046 3045 3043 3042 3041 3039 3038 3036 3034 3033 3032 3032 3031 3030 3029 3029 3028 3028 3028 3028 3028 3029 3029 3029 3029 3029 3030 3030 3030 3030 3030 3030 3030 3030 3030 3030 3030 3030 3031 3032 3032 3032 3032 3032 3033
3064 3064 3064 3064 3063 3063 3063 3063 3063 3063 3063 3063 3063 3064 3064 3064 3064 3064 3065 3065 3065 3064 3064 3064 3063 3063 3062 3061 3060 3059 3058 3056 3055 3054 3052 3051 3050 3049 3047 3046 3045 3044 3043 3041 3040 3039 3038 3036 3034 3033 3032 3032 3031 3031 3031 3030 3029 3029 3029 3029 3029 3029 3029 3029 3029 3029 3029 3029 3029 3029 3029 3029 3029 3029 3029 3029 3029 3030 3030 3031 3031 3031 3032 3032 3032
3063 3063 3063 3062 3062 3062 3062 3062 3062 3062 3061 3061 3062 3062 3062 3062 3063 3063 3064 3064 3064 3063 3063 3063 3062 3061 3061 3060 3059 3058 3057 3056 3055 3053 3052 3050 3049 3048 3047 3046 3045 3044 3042 3041 3040 3039 3037 3036 3035 3034 3033 3032 3032 3031 3031 3030 3030 3030 3030 3030 3030 3030 3030 3029 3029 3029 3029 3029 3029 3029 3028 3028 3028 3028 3028 3028 3028 3029 3030 3030 3031 3031 3031 3031 3032
3062 3062 3062 3061 3062 3062 3062 3061 3061 3061 3061 3060 3060 3060 3061 3061 3062 3062 3063 3063 3063 3062 3062 3062 3061 3061 3060 3059 3059 3058 3057 3056 3054 3053 3052 3050 3049 3047 3046 3045 3044 3043 3042 3041 3040 3039 3038 3036 3035 3034 3033 3033 3033 3032 3031 3031 3031 3031 3031 3031 3030 3030 3030 3030 3029 3029 3029 3029 3029 3028 3028 3027 3027 3027 3027 3027 3028 3029 3030 3030 3030 3030 3031 3031 3031
3061 3061 3061 3061 3061 3061 3061 3061 3061 3061 3061 3060 3060 3060 3060 3061 3061 3062 3062 3062 3062 3062 3061 3061 3060 3060 3060 3059 3058 3057 3056 3055 3054 3052 3051 3050 3048 3047 3046 3045 3044 3043 3042 3041 3040 3039 3038 3037 3036 3035 3034 3034 3033 3033 3032 3032 3032 3031 3031 3031 3030 3030 3030 3029 3029 3029 3029 3028 3028 3028 3027 3027 3027 3027 3028 3028 3029 3029 3029 3029 3029 3030 3030 3030 3031
3059 3059 3059 3060 3060 3060 3061 3061 3061 3061 3061 3060 3060 3060 3060 3061 3061 3061 3062 3062 3061 3061 3061 3060 3060 3060 3059 3059 3058 3057 3056 3054 3053 3052 3051 3049 3048 3047 3045 3044 3043 3042 3041 3040 3039 3038 3037 3037 3036 3035 3035 3034 3034 3034 3033 3033 3032 3031 3031 3030 3030 3030 3029 3029 3029 3029 3028 3028 3027 3027 3027 3028 3028 3028 3028 3028 3029 3029 3029 3029 3029 3029 3030 3030 3030
3057 3058 3058 3058 3059 3059 3060 3060 3060 3060 3060 3060 3060 3060 3060 3060 3061 3061 3061 3061 3061 3060 3060 3060 3059 3059 3059 3058 3057 3056 3055 3054 3053 3052 3051 3050 3048 3046 3045 3044 3043 3042 3041 3040 3039 3038 3037 3037 3036 3036 3035 3035 3034 3034 3033 3033 3032 3032 3031 3030 3030 3030 3029 3029 3029 3028 3028 3028 3027 3027 3028 3028 3028 3028 3028 3028 3028 3029 3029 3029 3029 3029 3029 3029 3029
3055 3056 3056 3057 3057 3058 3058 3059 3059 3059 3059 3059 3059 3060 3060 3060 3060 3060 3061 3061 3060 3060 3059 3059 3059 3059 3058 3057 3057 3056 3055 3054 3053 3052 3051 3050 3048 3047 3046 3044 3043 3042 3041 3040 3039 3038 3037 3037 3036 3036 3035 3035 3034 3034 3034 3033 3033 3032 3031 3031 3030 3030 3029 3029 3029 3028 3028 3028 3028 3028 3028 3028 3028 3028 3028 3028 3028 3029 3029 3029 3028 3028 3028 3028 3027